EDT,Max TemperatureF,Mean TemperatureF,Min TemperatureF,Max Dew PointF,MeanDew PointF,Min DewpointF,Max Humidity, Mean Humidity, Min Humidity, Max Sea Level PressureIn, Mean Sea Level PressureIn, Min Sea Level PressureIn, Max VisibilityMiles, Mean VisibilityMiles, Min VisibilityMiles, Max Wind SpeedMPH, Mean Wind SpeedMPH, Max Gust SpeedMPH,PrecipitationIn, CloudCover, Events, WindDirDegrees
2013-9-1,90,82,75,76,75,72,97,84,59,29.96,29.92,29.86,10,9,5,14,6,17,0.01,1,,212
2013-9-2,88,80,73,78,75,71,97,85,66,29.93,29.90,29.88,10,8,1,15,7,36,0.98,3,Rain-Thunderstorm,227
2013-9-3,87,76,66,76,72,66,100,86,63,30.01,29.90,29.86,10,8,0,22,6,30,1.03,5,Rain-Thunderstorm,233
2013-9-4,87,77,68,74,71,67,100,84,63,30.06,30.03,29.92,10,10,10,10,3,,0.03,3,,114
2013-9-5,88,80,71,75,73,70,100,87,59,30.10,30.07,30.03,10,6,0,8,1,,0.00,4,Fog,200
2013-9-6,87,77,68,72,68,63,100,78,53,30.17,30.11,30.06,10,9,3,14,6,18,0.00,3,Thunderstorm,15
2013-9-7,82,73,64,64,60,53,93,66,39,30.09,30.05,29.98,10,10,10,13,6,,0.00,2,,39
2013-9-8,86,74,62,71,66,61,96,79,55,30.00,29.95,29.90,10,8,7,9,2,,0.00,1,,198
2013-9-9,88,78,69,71,69,66,97,79,49,30.41,30.11,29.98,10,8,5,10,2,,0.00,2,,106
2013-9-10,89,78,68,72,69,66,97,76,48,30.23,30.20,30.17,10,8,5,12,3,,0.00,2,,105
2013-9-11,86,75,66,70,68,64,97,78,51,30.20,30.16,30.11,10,8,5,10,2,,0.00,3,,124
2013-9-12,88,77,66,72,69,66,97,80,48,30.10,29.98,29.84,10,10,8,10,3,,0.00,2,,223
2013-9-13,88,80,72,70,67,61,91,72,44,29.84,29.79,29.74,10,10,7,10,7,16,0.00,3,,282
2013-9-14,80,72,64,64,61,55,84,70,54,30.13,29.99,29.84,10,10,10,16,10,,0.00,3,,30
2013-9-15,82,73,64,68,63,60,93,73,49,30.23,30.17,30.13,10,10,10,8,4,,0.00,1,,74
2013-9-16,87,76,66,72,69,64,96,85,59,30.16,30.11,30.05,10,8,0,25,4,33,0.49,5,Fog-Rain-Thunderstorm,4
2013-9-17,79,70,61,62,58,53,84,69,54,30.27,30.22,30.14,10,10,10,18,12,25,0.00,2,,31
2013-9-18,78,66,55,58,55,51,86,68,52,30.26,30.22,30.16,10,10,10,13,8,,0.00,3,,30
2013-9-19,79,68,57,60,55,50,97,71,39,30.19,30.15,30.10,10,10,10,10,5,,0.00,0,,28
2013-9-20,75,67,61,65,62,59,97,83,66,30.11,30.06,29.99,10,10,8,10,2,,0.00,5,,298
2013-9-21,78,72,66,70,68,63,97,87,74,29.98,29.88,29.76,10,10,6,9,4,,0.01,7,Rain,217
2013-9-22,75,70,66,72,69,61,96,91,79,29.86,29.72,29.67,10,8,0,17,8,24,0.94,7,Fog-Rain,315
2013-9-23,75,66,55,60,55,52,97,71,44,30.09,30.00,29.88,10,10,10,14,8,21,0.00,2,,4
2013-9-24,75,64,54,58,54,50,96,72,43,30.12,30.04,29.98,10,10,8,14,5,,0.00,1,,43
2013-9-25,75,64,54,61,57,53,97,78,59,29.97,29.92,29.87,10,9,6,9,3,,0.01,2,Rain,44
2013-9-26,78,70,63,61,60,58,90,74,50,29.95,29.90,29.86,10,10,10,13,6,,0.03,4,Rain,14
2013-9-27,77,68,61,61,56,52,90,64,46,30.14,30.09,30.05,10,10,10,20,12,26,0.00,5,,24
2013-9-28,78,69,61,59,57,55,86,70,47,30.18,30.14,30.11,10,10,10,16,12,21,0.00,3,,20
2013-9-29,77,68,59,62,59,56,93,79,51,30.13,30.07,30.01,10,10,8,13,8,21,0.00,3,,1
2013-9-30,78,66,55,58,53,44,93,71,32,30.08,30.04,30.00,10,10,9,12,5,,0.00,0,,356